This demonstration page uses our WeatherBlox Daily Observations layout. Learn more.

Left ArrowRight Arrow

39.12711, -84.51439

Hourly Observations for September 24, 2021

Temp ( °F °C ) Dew Point ( °F °C ) Humidity (%) Winds ( mph kmh ) Pressure ( in mb ) Visibility ( mi km ) Precip ( " mm )
12:53 am 00:53 Clear 46 7.8 46 7.8 100 100 Calm 30.05 1018 10 16 0.00 0.00
1:53 am 01:53 Clear 45 7.2 45 7.2 100 100 Calm 30.04 1017 7 11 0.00 0.00
2:07 am 02:07 Clear with Mist and Fog 46 7.8 46 7.8 100 100 Calm 30.06 1018 2 3 0.00 0.00
2:25 am 02:25 Clear with Mist and Fog 46 7.8 46 7.8 100 100 Calm 30.06 1018 3 5 0.00 0.00
2:37 am 02:37 Clear with Mist and Fog 45 7.2 45 7.2 100 100 Calm 30.07 1018 2 2 0.00 0.00
2:45 am 02:45 Clear with Mist and Fog 45 7.2 45 7.2 100 100 Calm 30.07 1018 1 1 0.00 0.00
2:51 am 02:51 Clear with Mist and Fog 45 7 45 7 100 100 Calm 30.07 1018 2 3 0.00 0.00
2:53 am 02:53 Clear with Mist and Fog 45 7.2 45 7.2 100 100 Calm 30.06 1018 2 3 0.00 0.00
2:58 am 02:58 Mostly Cloudy with Mist and Fog 45 7.2 45 7.2 100 100 Calm 30.07 1018 1 2 0.00 0.00
3:08 am 03:08 Mostly Clear with Mist and Fog 45 7.2 45 7.2 100 100 Calm 30.07 1018 3 4 0.00 0.00
3:15 am 03:15 Mostly Clear 45 7.2 45 7.2 100 100 Calm 30.07 1018 10 16 0.00 0.00
3:53 am 03:53 Clear 43 6.1 43 6.1 100 100 Calm 30.06 1018 9 14 0.00 0.00
4:01 am 04:01 Mostly Clear with Mist and Fog 43 6.1 43 6.1 100 100 Calm 30.09 1019 3 4 0.00 0.00
4:06 am 04:06 Mostly Cloudy with Mist and Fog 43 6.1 43 6.1 100 100 Calm 30.09 1019 1 2 0.00 0.00
4:14 am 04:14 Mostly Cloudy with Fog 42 5.6 42 5.6 100 100 Calm 30.09 1019 0 0 0.00 0.00
4:25 am 04:25 Mostly Cloudy with Fog 44 6.7 44 6.7 100 100 Calm 30.09 1019 1 1 0.00 0.00
4:32 am 04:32 Mostly Cloudy with Fog 44 6.7 44 6.7 100 100 Calm 30.09 1019 0 0 0.00 0.00
4:46 am 04:46 Mostly Cloudy with Mist and Fog 43 6.1 43 6.1 100 100 Calm 30.10 1019 1 2 0.00 0.00
4:51 am 04:51 Partly Cloudy with Mist and Fog 43 6 43 6 100 100 Calm 30.10 1019 3 4 0.00 0.00
4:53 am 04:53 Partly Cloudy with Mist and Fog 43 6.1 43 6.1 100 100 Calm 30.08 1019 3 4 0.00 0.00
5:01 am 05:01 Partly Cloudy with Mist and Fog 43 6.1 43 6.1 100 100 Calm 30.10 1019 4 6 0.00 0.00
5:37 am 05:37 Mostly Clear with Mist and Fog 42 5.6 42 5.6 100 100 Calm 30.12 1020 2 2 0.00 0.00
5:40 am 05:40 Mostly Cloudy with Mist and Fog 42 5.6 42 5.6 100 100 Calm 30.12 1020 1 1 0.00 0.00
5:53 am 05:53 Mostly Cloudy with Fog 42 5.6 42 5.6 100 100 Calm 30.10 1019 1 1 0.00 0.00
6:39 am 06:39 Mostly Cloudy with Mist and Fog 43 6.1 43 6.1 100 100 Calm 30.13 1020 2 3 0.00 0.00
6:46 am 06:46 Mostly Cloudy 43 6.1 43 6.1 100 100 Calm 30.13 1020 9 14 0.00 0.00
6:53 am 06:53 Mostly Clear with Patchy Fog 43 6.1 43 6.1 100 100 Calm 30.11 1020 10 16 0.00 0.00
7:53 am 07:53 Partly Cloudy with Patchy Fog 42 5.6 42 5.6 100 100 Calm 30.12 1020 10 16 0.00 0.00
8:53 am 08:53 Sunny 49 9.4 49 9.4 100 100 Calm 30.12 1020 10 16 0.00 0.00
9:53 am 09:53 Sunny 56 13.3 51 10.6 84 84 S 5 7 30.14 1021 10 16 0.00 0.00
10:53 am 10:53 Sunny 63 17.2 51 10.6 65 65 SSW 5 7 30.14 1021 10 16 0.00 0.00
11:53 am 11:53 Sunny 68 20 49 9.4 51 51 W 10 17 30.14 1021 10 16 0.00 0.00
12:53 pm 12:53 Sunny 71 21.7 48 8.9 44 44 WSW 9 15 30.12 1020 10 16 0.00 0.00
1:53 pm 13:53 Sunny 72 22.2 47 8.3 41 41 VRB 6 9 30.10 1019 10 16 0.00 0.00
2:53 pm 14:53 Sunny 74 23.3 48 8.9 40 40 W 8 13 30.08 1019 10 16 0.00 0.00
3:53 pm 15:53 Sunny 74 23.3 48 8.9 40 40 S 5 7 30.06 1018 10 16 0.00 0.00
4:53 pm 16:53 Sunny 74 23.3 48 8.9 40 40 SSW 12 19 30.05 1018 10 16 0.00 0.00
5:53 pm 17:53 Sunny 73 22.8 49 9.4 43 43 S 9 15 30.04 1017 10 16 0.00 0.00
6:53 pm 18:53 Sunny 67 19.4 51 10.6 57 57 S 7 11 30.04 1017 10 16 0.00 0.00
7:53 pm 19:53 Clear 60 15.6 54 12.2 80 80 SSW 6 9 30.06 1018 10 16 0.00 0.00
8:53 pm 20:53 Clear 58 14.4 54 12.2 87 87 Calm 30.07 1018 10 16 0.00 0.00
9:53 pm 21:53 Clear 56 13.3 54 12.2 93 93 Calm 30.07 1018 10 16 0.00 0.00
10:53 pm 22:53 Clear 54 12.2 53 11.7 97 97 Calm 30.07 1018 10 16 0.00 0.00
11:53 pm 23:53 Clear 54 12.2 54 12.2 100 100 Calm 30.06 1018 10 16 0.00 0.00

Powered by AerisWeather